AirNav   Air Wisconsin pilot careers
 
 330 users online  

E25 Wickenburg Municipal Airport
Wickenburg, Arizona, USA

GOING TO WICKENBURG?


FAA INFORMATION EFFECTIVE 08 NOVEMBER 2018

Location

FAA Identifier: E25
Lat/Long: 33-58-14.2656N / 112-47-42.3233W
33-58.237760N / 112-47.705388W
33.9706293 / -112.7950898
(estimated)
Elevation: 2378.6 ft. / 725.0 m (surveyed)
Variation: 13E (1985)
From city: 3 miles W of WICKENBURG, AZ
Time zone: UTC -7 (year round; does not observe DST)
Zip code: 85390

Airport Operations

Airport use: Open to the public
Activation date: 05/1969
Control tower: no
ARTCC: ALBUQUERQUE CENTER
FSS: PRESCOTT FLIGHT SERVICE STATION
NOTAMs facility: PRC (NOTAM-D service available)
Attendance: TUE-SAT 0700-1600
AFTER HRS CTC (928) 684-4926.
Pattern altitude: 3378.6 ft. MSL
Wind indicator: lighted, LIGHTED INDICATORS INOPERATIVE.
Segmented circle: yes
Lights: ACTVT MIRL RY 05/23, REIL RY 05, REIL RY 23 AND TWY LGTS - CTAF. PAPI RYS 05 & 23 ON FROM DAWN-DUSK, ACTVT PAPI RYS 05 & 23 DUSK-DAWN - CTAF.
Beacon: white-green (lighted land airport)
Operates sunset to sunrise.

Airport Communications

CTAF/UNICOM: 123.0
WX AWOS-3: 121.375 (928-684-2487)

Nearby radio navigation aids

VOR radial/distance  VOR name  Freq  Var
BXKr349/31.1BUCKEYE VORTAC110.6014E

Airport Services

Fuel available: 100LL JET-A1+
SELF-FUELING AVAILABLE 24/7 WITH MAJOR CREDIT CARD. JET 'A' AVAILABLE WITH CALL-OUT OF $100 AFTER 1600 AND ON SUN & MON.
Parking: tiedowns
Airframe service: MINOR
Powerplant service: MINOR
Bulk oxygen: NONE

Runway Information

Runway 5/23

Dimensions: 6101 x 75 ft. / 1860 x 23 m
Surface: asphalt, in good condition
Weight bearing capacity: 
Single wheel: 30.0
Double wheel: 60.0
Runway edge lights: medium intensity
Gradient: SW.
RUNWAY 5  RUNWAY 23
Latitude: 33-57.989590N33-58.485928N
Longitude: 112-48.230338W112-47.180438W
Elevation: 2378.4 ft.2307.3 ft.
Gradient: 1.0%1.2% UP
Traffic pattern: leftright
Runway heading: 047 magnetic, 060 true227 magnetic, 240 true
Markings: nonprecision, in fair conditionnonprecision, in fair condition
Visual slope indicator: 4-light PAPI on left (3.00 degrees glide path)4-light PAPI on left (3.00 degrees glide path)
Runway end identifier lights: yesyes
Touchdown point: yes, no lightsyes, no lights
Obstructions: 3 ft. gnd, 201 ft. from runway, 100 ft. left of centerline
RY 05, 1 FT-3 FT BRUSH 40 FT-190 FT FM THRESHOLD, 40 FT L & R OF CNTRLN.
none
RY 05, 1 FT-3 FT BRUSH 0 FT-200 FT FM THRESHOLD, 50 FT - 70 FT R OF CNTRLN.

Airport Ownership and Management from official FAA records

Ownership: Publicly-owned
Owner: TOWN OF WICKENBURG
155 NORTH TEGNER ST SUITE A
WICKENBURG, AZ 85390
Phone 928-684-5451
AIRPORT CTC INFORMATION AVBL AT WWW.WICKENBURGAZ.ORG.
Manager: AARON WHITE
155 NORTH TEGNER ST SUITE A
WICKENBURG, AZ 85390
Phone 928-684-5451
TOWN MANAGER 928-684-5122

Airport Operational Statistics

Aircraft based on the field: 33
Single engine airplanes: 25
Multi engine airplanes: 6
Helicopters: 2
    
Aircraft operations: avg 99/day *
67% transient general aviation
32% local general aviation
1% air taxi
<1% military
* for 12-month period ending 25 April 2018

Additional Remarks

RWY 23 HAS 150 FT BLAST PAD.
RWY 05 HAS 150 FT BLAST PAD.
WILDLIFE ON OR INVOF ARPT.
NUMEROUS TWY LIGHTS INOP.
FOR CD CTC LUKE APCH AT 623-856-7361. IF UNA, CTC PHOENIX APCH AT 602-306-2565.

Instrument Procedures

There are no published instrument procedures at E25.

Some nearby airports with instrument procedures:

KLUF - Luke Air Force Base (33 nm SE)
KGEU - Glendale Municipal Airport (36 nm SE)
KGYR - Phoenix Goodyear Airport (39 nm SE)
KDVT - Phoenix Deer Valley Airport (39 nm SE)
KPRC - Ernest A Love Field Airport (45 nm NE)
 
Loc | Ops | Rwys | IFR | FBO | Links
Com | Nav | Svcs | Stats | Notes


 
Area around E25 (Wickenburg Municipal Airport)
 
Road maps at: MapQuest Bing Google
 
Aerial photo
WARNING: Photo may not be current or correct
Aerial photo of E25 (Wickenburg Municipal Airport)
Photo taken 31-Dec-2006

Do you have a better or more recent aerial photo of Wickenburg Municipal Airport that you would like to share? If so, please send us your photo.

 
Sectional chart

 
Airport distance calculator
Flying to Wickenburg Municipal Airport? Find the distance to fly.

From to E25

Sunrise and sunset
Times for 21-Nov-2018
 Local
(UTC-7)
 Zulu
(UTC)
Morning civil twilight06:4413:44
Sunrise07:1014:10
Sunset17:2400:24
Evening civil twilight17:5100:51

Current date and time
Zulu (UTC)  21-Nov-2018 08:49:21
Local (UTC-7)  21-Nov-2018 01:49:21
 
METAR
KBXK 
33nm S 
210835Z AUTO 00000KT 10SM CLR 07/M03 A3006 RMK AO1
KLUF 
35nm SE 
210758Z AUTO 02004KT 10SM CLR 11/00 A3003 RMK AO2 SLP164 T01090000 $
KGEU 
36nm SE 
210256Z 00000KT 10SM SCT080 SCT220 16/00 A2999 RMK LAST
KGYR 
40nm SE 
210347Z VRB05KT 10SM SKC 16/M01 A3001 RMK LAST
KDVT 
40nm SE 
210753Z AUTO 36005KT 10SM CLR 12/M03 A3005 RMK AO2 SLP162 T01221033
KPRC 
45nm NE 
210753Z AUTO 20005KT 10SM CLR 00/M09 A3019 RMK AO2 SLP197 T00001089
KSDL 
49nm SE 
210753Z AUTO 00000KT 10SM CLR 11/M01 A3006 RMK AO2 SLP163 T01111011
KPHX 
49nm SE 
210751Z 26005KT 10SM CLR 13/00 A3003 RMK AO2 SLP159 T01330000
TAF
KLUF 
35nm SE 
210409Z 2104/2210 VRB06KT 9999 SKC QNH2997INS BECMG 2116/2117 13009KT 9999 FEW200 QNH3002INS BECMG 2202/2203 VRB06KT 9999 SCT200 QNH3005INS BECMG 2208/2209 VRB06KT 9999 SCT120 BKN180 QNH3008INS TX22/2123Z TN07/2113Z
NOTAMs
Click for the latest NOTAMs
NOTAMs are issued by the DoD/FAA and will open in a separate window not controlled by AirNav.

 

 
 

FBO, Fuel Providers, and Aircraft Ground Support

  
 Business Name 
 
 Contact 
 
 Services / Description 
 
Fuel Prices
 
Comments
  
 Town of Wickenburg
928-684-0754
[web site]
[email]
Aviation fuel, Aircraft parking (ramp or tiedown), Hangar leasing / sales, Catering, Pilots lounge / snooze room, Computerized weather, Internet access, Restrooms

More info about Town of Wickenburg
independent
100LL Jet A
FS $4.85 $4.95 
 Updated 31-Oct-2018
 
   4 read write
FS=Full service
Update Fuel Prices
 

Would you like to see your business listed on this page?

 If your business provides an interesting product or service to pilots, flight crews, aircraft, or users of the Wickenburg Municipal Airport, you should consider listing it here.  To start the listing process, click on the button below
 
Add a business
 

Other Pages about Wickenburg Municipal Airport

www.wickenburgairport.com
 
Update a link
 
Copyright © AirNav, LLC. All rights reserved. Privacy Policy  Contact